Find Kuiper-00125

NORAD ID: 65954 Int'l Des: 2025-228 Owner: KUIP Country: US Constellation: amazon-leo operational
LEOCIRCULAR

現在のビュー

3D地球を読み込み中...

About Kuiper-00125

Kuiper-00125 (NORAD 65954) is a amazon-leo constellation satellite launched Oct 14, 2025 by KUIP of US. It operates in LEO, CIRCULAR orbit with a mass of 490.00 kg.

次回通過

Passes for default location (London). Set your location on the main map for personalized predictions.

高度履歴

Loading altitude history...

軌道要素

1 65954U 25228H 26265.16113799 -.00003882 00000-0 -48043-3 0 9991
2 65954 51.8996 191.8074 0000960 155.2453 204.8555 14.79937443 52602
Epoch: Sep 22, 2026 • Age: 29 hours

現在のステータス

高度 636.4 km
遠地点 / 近地点 N/A
速度 7.54 km/s
衛星直下点 -25.30°S, 99.66°W
打ち上げ日 Oct 14, 2025
運用期間 0.9 years
タイプ internet

技術仕様

分類 Payload
質量 490.00 kg
形状 ? Box + 2 pan
製造者 KUIP
バスタイプ Kuiper
フェーズステータス In Orbit
所有者/国 KUIP/US

Most Searched